Location: Unspecified
(0.0000°N, 0.0000°E)
Time: 14:35:55
(UTC+00:00)

Explorer 11/Cluster Stage 4 - Pass Details

Date: 26 February 2024
Orbit: 465 x 1219 km, 28.8° (Epoch: 24 April)

Event Time Altitude Azimuth Distance (km) Brightness Sun altitude
Rises 20:48:56 0° 247° (WSW) 3,550 10.8 -38.5°
Reaches altitude 10° 20:51:24 10° 250° (WSW) 2,712 10.0 -39.1°
Enters shadow 20:55:25 39° 267° (W) 1,532 8.3 -40.1°
